Powrót do katalogu

STARLINK-37772

AktywnyŁącznośćSSO
NORAD 69330·PAYLOAD·🇺🇸 United States

Wystrzelony Jun 3, 2026 z Vandenberg Space Force Base

Loading…

Następne Przeloty (najbliższe 24 godziny)

TLE

ŚwieżeSource: CelesTrak SupGP

Epoka: Sep 14, 2026, 21:33 UTC

1 69330C 26122B   26257.89840278  .00026198  00000+0  81349-3 0  2572
2 69330  97.2833 286.5268 0001209 102.8420 350.1256 15.33417254    19

Śledź STARLINK-37772 w czasie rzeczywistym z AllMySat

Download on the App Store